Richmond, KY

3:37 AM EDT on May 23, 2018 (GMT -0400)
Richmond

Weather History for KI39 - March, 2012

Change the Weather History Date:

Monday, March 12, 2012

  Actual Average (KLOZ) Record (KLOZ)
Temperature  
Mean Temperature 60 °F -  
Max Temperature 66 °F 59 °F 82 °F (1990)
Min Temperature 55 °F 36 °F 6 °F (1960)
Degree Days  
Heating Degree Days 4    
Growing Degree Days 10 (Base 50)    
Moisture  
Dew Point 48 °F    
Average Humidity 63    
Maximum Humidity 82    
Minimum Humidity 36    
Precipitation  
Precipitation 0.00 in - - ()
Sea Level Pressure  
Sea Level Pressure 30.16 in    
Wind  
Wind Speed 10 mph (South)    
Max Wind Speed 23 mph    
Max Gust Speed 31 mph    
Visibility 10 miles    
Events      
Averages and records for this station are not official NWS values.
T = Trace of Precipitation, MM = Missing Value Source: NWS Daily Summary

Daily Weather History Graph

Daily Weather History Graph

Search for Another Location

Airport or City:

Astronomy

Mar. 12, 2012 Rise Set
Actual Time 7:52 AM EDT 7:42 PM EDT
Civil Twilight 7:26 AM EDT 8:08 PM EDT
Nautical Twilight 6:55 AM EDT 8:38 PM EDT
Astronomical Twilight 6:25 AM EDT 9:09 PM EDT
Moon No Moon Rise 10:19 AM EDT (3/12)
Length of Visible Light 12h 42m
Length of Day
11h 50m
Waning Gibbous, 76% of the Moon is Illuminated
Mar 12
Waning Gibbous
Mar 14
Last Quarter
Mar 22
New
Mar 30
First Quarter
Apr 6
Full

Hourly Weather History & Observations

Time (EDT) Temp. Dew Point Humidity Pressure Visibility Wind Dir Wind Speed Gust Speed Precip Events Conditions
12:15 AM 59.0 °F 33.8 °F 39% 30.25 in 10.0 mi SSE 4.6 mph - N/A   Clear
12:35 AM 59.0 °F 35.6 °F 42% 30.25 in 10.0 mi South 5.8 mph - N/A   Clear
12:55 AM 59.0 °F 35.6 °F 42% 30.25 in 10.0 mi SSE 6.9 mph - N/A   Scattered Clouds
1:15 AM 59.0 °F 35.6 °F 42% 30.25 in 10.0 mi SSE 9.2 mph - N/A   Mostly Cloudy
1:35 AM 60.8 °F 33.8 °F 36% 30.25 in 10.0 mi SSE 10.4 mph - N/A   Scattered Clouds
2:15 AM 60.8 °F 35.6 °F 39% 30.23 in 10.0 mi SSE 10.4 mph - N/A   Overcast
2:35 AM 60.8 °F 35.6 °F 39% 30.23 in 10.0 mi SSE 9.2 mph - N/A   Scattered Clouds
2:55 AM 60.8 °F 37.4 °F 42% 30.23 in 10.0 mi South 5.8 mph - N/A   Mostly Cloudy
3:35 AM 59.0 °F 37.4 °F 45% 30.23 in 10.0 mi South 10.4 mph - N/A   Overcast
3:55 AM 59.0 °F 39.2 °F 48% 30.22 in 10.0 mi South 6.9 mph - N/A   Overcast
4:15 AM 59.0 °F 39.2 °F 48% 30.21 in 10.0 mi South 6.9 mph - N/A   Overcast
4:35 AM 59.0 °F 41.0 °F 51% 30.20 in 10.0 mi South 6.9 mph - N/A   Overcast
4:55 AM 59.0 °F 41.0 °F 51% 30.19 in 10.0 mi South 6.9 mph - N/A   Overcast
5:15 AM 59.0 °F 41.0 °F 51% 30.19 in 10.0 mi SSE 6.9 mph - N/A   Overcast
5:55 AM 59.0 °F 42.8 °F 55% 30.19 in 10.0 mi South 6.9 mph - N/A   Overcast
6:15 AM 57.2 °F 42.8 °F 59% 30.20 in 10.0 mi South 8.1 mph - N/A   Overcast
6:35 AM 55.4 °F 44.6 °F 67% 30.19 in 10.0 mi SSE 8.1 mph - N/A   Overcast
6:55 AM 55.4 °F 46.4 °F 72% 30.19 in 10.0 mi SSE 5.8 mph - N/A   Overcast
7:35 AM 57.2 °F 46.4 °F 67% 30.17 in 10.0 mi SSE 8.1 mph - N/A   Mostly Cloudy
7:55 AM 57.2 °F 46.4 °F 67% 30.17 in 10.0 mi SSE 9.2 mph - N/A   Scattered Clouds
8:15 AM 57.2 °F 46.4 °F 67% 30.17 in 10.0 mi South 11.5 mph 17.3 mph N/A   Scattered Clouds
8:35 AM 59.0 °F 46.4 °F 63% 30.18 in 10.0 mi South 9.2 mph 16.1 mph N/A   Scattered Clouds
8:55 AM 59.0 °F 46.4 °F 63% 30.18 in 10.0 mi South 10.4 mph 17.3 mph N/A   Mostly Cloudy
9:15 AM 59.0 °F 48.2 °F 67% 30.18 in 10.0 mi South 12.7 mph 18.4 mph N/A   Overcast
9:35 AM 59.0 °F 48.2 °F 67% 30.19 in 10.0 mi South 11.5 mph 17.3 mph N/A   Overcast
9:55 AM 60.8 °F 50.0 °F 68% 30.19 in 10.0 mi South 10.4 mph 18.4 mph N/A   Mostly Cloudy
10:15 AM 60.8 °F 50.0 °F 68% 30.19 in 10.0 mi South 11.5 mph 19.6 mph N/A   Mostly Cloudy
10:35 AM 60.8 °F 50.0 °F 68% 30.19 in 10.0 mi South 13.8 mph 19.6 mph N/A   Scattered Clouds
10:55 AM 62.6 °F 50.0 °F 63% 30.19 in 10.0 mi South 13.8 mph 25.3 mph N/A   Scattered Clouds
11:15 AM 64.4 °F 51.8 °F 64% 30.18 in 10.0 mi South 18.4 mph 25.3 mph N/A   Scattered Clouds
11:35 AM 64.4 °F 51.8 °F 64% 30.18 in 10.0 mi SSW 18.4 mph 26.5 mph N/A   Mostly Cloudy
11:55 AM 64.4 °F 51.8 °F 64% 30.17 in 10.0 mi South 17.3 mph 27.6 mph N/A   Overcast
12:15 PM 64.4 °F 51.8 °F 64% 30.18 in 10.0 mi South 21.9 mph 29.9 mph N/A   Overcast
12:35 PM 64.4 °F 51.8 °F 64% 30.17 in 10.0 mi SSW 15.0 mph 26.5 mph N/A   Overcast
12:55 PM 64.4 °F 51.8 °F 64% 30.17 in 10.0 mi South 23.0 mph 29.9 mph N/A   Overcast
1:15 PM 66.2 °F 51.8 °F 60% 30.17 in 10.0 mi South 16.1 mph 31.1 mph N/A   Overcast
1:35 PM 66.2 °F 53.6 °F 64% 30.17 in 10.0 mi SSW 19.6 mph 25.3 mph N/A   Overcast
1:55 PM 66.2 °F 53.6 °F 64% 30.16 in 10.0 mi SSW 18.4 mph 28.8 mph N/A   Overcast
2:15 PM 66.2 °F 53.6 °F 64% 30.15 in 10.0 mi South 20.7 mph 26.5 mph N/A   Overcast
2:35 PM 66.2 °F 51.8 °F 60% 30.14 in 10.0 mi South 20.7 mph 29.9 mph N/A   Overcast
2:55 PM 66.2 °F 53.6 °F 64% 30.13 in 10.0 mi South 18.4 mph 25.3 mph N/A   Overcast
3:15 PM 66.2 °F 51.8 °F 60% 30.13 in 10.0 mi SSW 17.3 mph 28.8 mph N/A   Overcast
3:35 PM 64.4 °F 53.6 °F 68% 30.12 in 10.0 mi South 19.6 mph 26.5 mph N/A   Overcast
4:15 PM 66.2 °F 53.6 °F 64% 30.11 in 10.0 mi SSW 16.1 mph 21.9 mph N/A   Overcast
4:35 PM 64.4 °F 53.6 °F 68% 30.11 in 10.0 mi South 18.4 mph 26.5 mph N/A   Overcast
4:55 PM 64.4 °F 53.6 °F 68% 30.11 in 10.0 mi SSW 15.0 mph 24.2 mph N/A   Overcast
5:35 PM 62.6 °F 55.4 °F 77% 30.11 in 10.0 mi South 11.5 mph 16.1 mph N/A   Overcast
5:55 PM 60.8 °F 55.4 °F 82% 30.10 in 10.0 mi South 9.2 mph - N/A   Overcast
6:15 PM 62.6 °F 55.4 °F 77% 30.10 in 10.0 mi South 10.4 mph - N/A   Overcast
6:35 PM 62.6 °F 55.4 °F 77% 30.09 in 10.0 mi South 12.7 mph 18.4 mph N/A   Overcast
7:15 PM 62.6 °F 55.4 °F 77% 30.10 in 10.0 mi South 13.8 mph 20.7 mph N/A   Mostly Cloudy
8:15 PM 62.6 °F 53.6 °F 72% 30.09 in 10.0 mi South 15.0 mph - N/A   Overcast
8:35 PM 62.6 °F 53.6 °F 72% 30.08 in 10.0 mi South 15.0 mph 21.9 mph N/A   Scattered Clouds
8:55 PM 62.6 °F 53.6 °F 72% 30.09 in 10.0 mi South 13.8 mph 23.0 mph N/A   Clear
9:15 PM 60.8 °F 53.6 °F 77% 30.10 in 10.0 mi South 11.5 mph 19.6 mph N/A   Scattered Clouds
9:35 PM 60.8 °F 53.6 °F 77% 30.10 in 10.0 mi SSW 13.8 mph 18.4 mph N/A   Clear
9:55 PM 60.8 °F 53.6 °F 77% 30.10 in 10.0 mi SSW 11.5 mph 20.7 mph N/A   Clear
10:15 PM 60.8 °F 53.6 °F 77% 30.10 in 10.0 mi South 13.8 mph 19.6 mph N/A   Clear
10:35 PM 60.8 °F 53.6 °F 77% 30.11 in 10.0 mi SSW 12.7 mph 19.6 mph N/A   Clear
10:55 PM 60.8 °F 53.6 °F 77% 30.10 in 10.0 mi South 13.8 mph 18.4 mph N/A   Clear
11:15 PM 60.8 °F 53.6 °F 77% 30.10 in 10.0 mi South 13.8 mph 20.7 mph N/A   Scattered Clouds
11:35 PM 60.8 °F 53.6 °F 77% 30.10 in 10.0 mi SSW 15.0 mph 19.6 mph N/A   Scattered Clouds
11:55 PM 59.0 °F 53.6 °F 82% 30.11 in 10.0 mi SSW 11.5 mph 18.4 mph N/A   Scattered Clouds